QPF
0.00 0.00 0.02 0.04 0.03 0.01 0.01 0.00 0.00 0.00 0.02 0.04 0.04 0.03 0.05 0.04 0.02 0.01 0.01 0.02 0.02 0.01 0.01 0.01 0.02 0.03 0.04 0.05 0.07 0.08 0.10 0.12 0.13 0.16 0.14 0.13 0.12 0.12 0.12 0.11 0.10 0.11 0.14 0.16
0.00 0.00 0.00 0.01 0.02 0.01 0.01 0.00 0.00 0.00 0.02 0.05 0.04 0.02 0.03 0.03 0.05 0.03 0.01 0.01 0.02 0.01 0.01 0.01 0.02 0.03 0.04 0.06 0.07 0.08 0.10 0.11 0.12 0.14 0.13 0.13 0.14 0.15 0.16 0.14 0.15 0.16 0.18 0.18
0.00 0.00 0.00 0.01 0.01 0.00 0.00 0.00 0.00 0.00 0.01 0.03 0.04 0.04 0.02 0.01 0.03 0.03 0.01 0.02 0.01 0.01 0.01 0.01 0.02 0.02 0.02 0.04 0.06 0.08 0.10 0.12 0.15 0.17 0.17 0.17 0.18 0.22 0.21 0.21 0.20 0.19 0.18 0.17
0.01 0.01 0.01 0.00 0.00 0.00 0.00 0.00 0.00 0.00 0.01 0.03 0.03 0.06 0.05 0.03 0.04 0.04 0.02 0.01 0.02 0.02 0.02 0.02 0.02 0.03 0.05 0.07 0.10 0.10 0.12 0.14 0.17 0.19 0.21 0.22 0.21 0.20 0.17 0.17 0.17 0.15 0.15 0.16
0.02 0.02 0.02 0.02 0.01 0.00 0.00 0.00 0.00 0.00 0.01 0.03 0.04 0.04 0.05 0.03 0.06 0.04 0.01 0.01 0.01 0.02 0.04 0.04 0.05 0.05 0.06 0.07 0.09 0.09 0.11 0.13 0.16 0.17 0.17 0.15 0.14 0.14 0.13 0.13 0.12 0.10 0.10 0.10
0.03 0.03 0.02 0.03 0.02 0.01 0.00 0.01 0.03 0.03 0.03 0.03 0.06 0.06 0.04 0.03 0.02 0.02 0.02 0.02 0.02 0.02 0.04 0.05 0.05 0.05 0.06 0.07 0.08 0.08 0.09 0.10 0.13 0.14 0.13 0.11 0.10 0.11 0.11 0.10 0.08 0.08 0.08 0.07
0.05 0.05 0.02 0.02 0.01 0.01 0.03 0.05 0.03 0.02 0.03 0.04 0.07 0.09 0.08 0.05 0.03 0.02 0.03 0.03 0.03 0.04 0.06 0.07 0.07 0.09 0.09 0.09 0.08 0.08 0.10 0.11 0.13 0.15 0.14 0.13 0.11 0.09 0.08 0.07 0.06 0.07 0.06 0.05
0.06 0.06 0.05 0.03 0.01 0.03 0.05 0.02 0.01 0.03 0.04 0.08 0.09 0.08 0.07 0.06 0.05 0.04 0.04 0.04 0.04 0.06 0.07 0.08 0.08 0.08 0.09 0.09 0.07 0.07 0.08 0.08 0.09 0.11 0.12 0.10 0.09 0.07 0.07 0.06 0.04 0.03 0.02 0.02
0.05 0.05 0.06 0.03 0.03 0.02 0.01 0.01 0.05 0.07 0.08 0.12 0.13 0.10 0.06 0.06 0.07 0.09 0.07 0.05 0.04 0.05 0.06 0.06 0.06 0.06 0.06 0.05 0.05 0.04 0.04 0.05 0.05 0.04 0.04 0.05 0.04 0.04 0.04 0.03 0.03 0.02 0.02 0.01
0.04 0.04 0.05 0.07 0.07 0.04 0.03 0.03 0.08 0.13 0.16 0.15 0.13 0.09 0.05 0.05 0.05 0.08 0.07 0.04 0.03 0.03 0.04 0.04 0.04 0.04 0.04 0.04 0.04 0.03 0.03 0.03 0.03 0.03 0.02 0.02 0.02 0.02 0.01 0.02 0.02 0.02 0.02 0.02
0.07 0.05 0.05 0.05 0.05 0.05 0.06 0.08 0.10 0.14 0.19 0.22 0.15 0.10 0.08 0.07 0.06 0.06 0.06 0.04 0.03 0.03 0.03 0.02 0.02 0.02 0.02 0.02 0.02 0.02 0.02 0.01 0.01 0.02 0.02 0.02 0.01 0.01 0.01 0.01 0.01 0.01 0.01 0.01
0.11 0.07 0.06 0.07 0.08 0.09 0.10 0.12 0.15 0.16 0.23 0.23 0.14 0.09 0.08 0.07 0.06 0.06 0.05 0.03 0.03 0.03 0.03 0.02 0.01 0.01 0.01 0.01 0.01 0.01 0.00 0.00 0.00 0.00 0.00 0.00 0.00 0.00 0.00 0.00 0.00 0.00 0.01 0.01
0.09 0.07 0.08 0.11 0.11 0.12 0.14 0.15 0.15 0.17 0.19 0.18 0.12 0.08 0.07 0.06 0.06 0.06 0.04 0.03 0.02 0.02 0.02 0.02 0.02 0.01 0.01 0.00 0.00 0.00 0.00 0.00 0.00 0.00 0.00 0.00 0.00 0.00 0.00 0.00 0.00 0.00 0.00 0.00
0.11 0.10 0.10 0.11 0.12 0.14 0.16 0.16 0.15 0.17 0.17 0.16 0.12 0.10 0.08 0.07 0.06 0.06 0.04 0.03 0.02 0.01 0.01 0.01 0.01 0.01 0.01 0.00 0.00 0.00 0.00 0.00 0.00 0.00 0.00 0.00 0.00 0.00 0.00 0.00 0.00 0.00 0.00 0.00
0.13 0.14 0.12 0.11 0.12 0.14 0.16 0.16 0.15 0.17 0.16 0.17 0.14 0.11 0.10 0.09 0.09 0.07 0.05 0.03 0.02 0.01 0.01 0.01 0.01 0.01 0.01 0.01 0.01 0.01 0.01 0.01 0.01 0.01 0.01 0.01 0.01 0.00 0.00 0.00 0.00 0.00 0.00 0.00
0.12 0.13 0.10 0.11 0.17 0.20 0.17 0.18 0.17 0.19 0.19 0.19 0.17 0.15 0.11 0.10 0.09 0.07 0.05 0.03 0.03 0.03 0.02 0.02 0.02 0.02 0.01 0.01 0.01 0.01 0.01 0.01 0.01 0.01 0.01 0.01 0.01 0.00 0.00 0.00 0.00 0.00 0.00 0.00
0.11 0.11 0.08 0.09 0.17 0.23 0.20 0.19 0.18 0.21 0.22 0.20 0.18 0.17 0.15 0.12 0.10 0.08 0.07 0.05 0.05 0.04 0.03 0.03 0.01 0.01 0.00 0.00 0.00 0.00 0.00 0.00 0.00 0.00 0.00 0.00 0.00 0.00 0.00 0.00 0.00 0.00 0.00 0.00
0.11 0.10 0.08 0.08 0.12 0.17 0.18 0.16 0.15 0.17 0.20 0.19 0.18 0.18 0.18 0.14 0.11 0.08 0.06 0.04 0.04 0.03 0.02 0.01 0.01 0.00 0.00 0.00 0.00 0.00 0.00 0.00 0.00 0.00 0.00 0.00 0.00 0.00 0.00 0.00 0.00 0.00 0.00 0.00
0.08 0.08 0.08 0.07 0.08 0.10 0.12 0.11 0.11 0.10 0.12 0.12 0.11 0.12 0.11 0.08 0.06 0.05 0.04 0.04 0.04 0.03 0.01 0.01 0.00 0.00 0.00 0.00 0.00 0.00 0.00 0.00 0.00 0.00 0.00 0.00 0.00 0.00 0.00 0.00 0.00 0.00 0.00 0.00
0.06 0.06 0.07 0.06 0.05 0.06 0.07 0.06 0.06 0.06 0.07 0.07 0.07 0.06 0.05 0.04 0.04 0.04 0.04 0.04 0.04 0.02 0.01 0.00 0.00 0.01 0.00 0.00 0.00 0.00 0.00 0.00 0.00 0.00 0.00 0.00 0.00 0.00 0.00 0.00 0.00 0.00 0.00 0.00
0.05 0.06 0.05 0.03 0.03 0.03 0.05 0.05 0.03 0.03 0.03 0.04 0.03 0.03 0.03 0.03 0.03 0.03 0.04 0.04 0.03 0.01 0.00 0.00 0.01 0.00 0.00 0.00 0.00 0.00 0.00 0.00 0.01 0.00 0.00 0.00 0.00 0.00 0.00 0.00 0.00 0.00 0.00 0.00
0.06 0.05 0.04 0.03 0.02 0.03 0.04 0.04 0.03 0.02 0.02 0.02 0.01 0.01 0.02 0.02 0.03 0.04 0.04 0.03 0.02 0.00 0.00 0.00 0.00 0.00 0.00 0.00 0.00 0.00 0.00 0.00 0.00 0.00 0.00 0.00 0.00 0.00 0.00 0.00 0.00 0.00 0.00 0.00
0.05 0.04 0.04 0.03 0.03 0.03 0.03 0.03 0.02 0.02 0.02 0.02 0.02 0.02 0.02 0.03 0.03 0.04 0.03 0.01 0.01 0.00 0.01 0.00 0.00 0.00 0.00 0.00 0.00 0.00 0.00 0.00 0.00 0.00 0.00 0.01 0.00 0.00 0.00 0.00 0.00 0.00 0.01 0.01
0.06 0.04 0.03 0.03 0.02 0.03 0.03 0.03 0.03 0.03 0.03 0.02 0.02 0.02 0.02 0.03 0.03 0.02 0.02 0.01 0.00 0.00 0.01 0.00 0.00 0.00 0.00 0.00 0.01 0.01 0.01 0.01 0.01 0.01 0.01 0.01 0.00 0.00 0.00 0.00 0.00 0.00 0.00 0.00
0.05 0.03 0.02 0.02 0.02 0.02 0.02 0.01 0.02 0.02 0.01 0.02 0.02 0.02 0.01 0.01 0.01 0.01 0.01 0.01 0.00 0.00 0.00 0.00 0.00 0.00 0.00 0.00 0.01 0.01 0.01 0.01 0.01 0.00 0.00 0.00 0.00 0.00 0.00 0.00 0.00 0.00 0.00 0.00
0.03 0.03 0.02 0.02 0.02 0.02 0.01 0.01 0.01 0.01 0.01 0.02 0.02 0.01 0.01 0.01 0.01 0.01 0.01 0.01 0.00 0.00 0.00 0.00 0.00 0.00 0.00 0.00 0.01 0.01 0.01 0.00 0.00 0.00 0.00 0.00 0.00 0.00 0.00 0.00 0.00 0.00 0.00 0.00
0.02 0.02 0.02 0.02 0.01 0.01 0.01 0.01 0.01 0.01 0.01 0.01 0.01 0.01 0.01 0.01 0.01 0.02 0.01 0.01 0.01 0.00 0.00 0.00 0.00 0.00 0.00 0.01 0.01 0.01 0.01 0.00 0.00 0.00 0.00 0.00 0.00 0.00 0.00 0.00 0.00 0.00 0.00 0.00
MSLP
1005.25 1005.32 1005.32 1005.28 1005.19 1005.07 1004.89 1004.67 1004.37 1004.01 1003.60 1003.17 1002.77 1002.44 1002.25 1002.22 1002.38 1002.72 1003.22 1003.84 1004.54 1005.28 1006.00 1006.70 1007.35 1007.96 1008.53 1009.08 1009.61 1010.13 1010.63 1011.11 1011.55 1011.95 1012.31 1012.64 1012.95 1013.25 1013.57 1013.91 1014.28 1014.66 1015.05 1015.43
1006.00 1005.97 1005.81 1005.54 1005.19 1004.79 1004.38 1003.96 1003.55 1003.16 1002.80 1002.48 1002.22 1002.04 1001.97 1002.02 1002.19 1002.50 1002.92 1003.44 1004.05 1004.71 1005.40 1006.10 1006.80 1007.48 1008.15 1008.79 1009.39 1009.95 1010.47 1010.93 1011.35 1011.73 1012.08 1012.42 1012.76 1013.12 1013.51 1013.93 1014.38 1014.84 1015.29 1015.70
1006.53 1006.43 1006.14 1005.69 1005.14 1004.55 1003.95 1003.39 1002.90 1002.49 1002.17 1001.93 1001.78 1001.70 1001.71 1001.79 1001.95 1002.20 1002.54 1002.96 1003.46 1004.05 1004.70 1005.40 1006.14 1006.90 1007.65 1008.37 1009.05 1009.66 1010.20 1010.68 1011.10 1011.48 1011.83 1012.19 1012.58 1013.02 1013.49 1014.01 1014.55 1015.09 1015.60 1016.05
1006.80 1006.64 1006.27 1005.72 1005.05 1004.33 1003.63 1003.00 1002.47 1002.06 1001.77 1001.60 1001.53 1001.52 1001.57 1001.66 1001.79 1001.97 1002.22 1002.54 1002.95 1003.46 1004.07 1004.77 1005.54 1006.36 1007.18 1007.97 1008.72 1009.38 1009.96 1010.46 1010.89 1011.28 1011.66 1012.06 1012.51 1013.01 1013.58 1014.19 1014.81 1015.43 1015.99 1016.48
1006.81 1006.63 1006.22 1005.63 1004.92 1004.16 1003.43 1002.78 1002.27 1001.89 1001.66 1001.56 1001.54 1001.59 1001.66 1001.75 1001.84 1001.96 1002.12 1002.35 1002.68 1003.12 1003.69 1004.38 1005.17 1006.02 1006.89 1007.75 1008.54 1009.25 1009.86 1010.38 1010.84 1011.25 1011.66 1012.11 1012.61 1013.18 1013.82 1014.50 1015.20 1015.88 1016.48 1017.00
1006.63 1006.43 1006.02 1005.44 1004.75 1004.02 1003.33 1002.74 1002.29 1001.99 1001.83 1001.80 1001.85 1001.94 1002.04 1002.13 1002.20 1002.26 1002.36 1002.51 1002.77 1003.16 1003.69 1004.36 1005.14 1006.00 1006.91 1007.79 1008.62 1009.36 1010.00 1010.55 1011.03 1011.47 1011.91 1012.40 1012.95 1013.57 1014.26 1015.00 1015.74 1016.45 1017.08 1017.61
1006.32 1006.11 1005.72 1005.18 1004.56 1003.91 1003.32 1002.83 1002.48 1002.29 1002.24 1002.30 1002.43 1002.58 1002.72 1002.82 1002.89 1002.93 1002.98 1003.09 1003.29 1003.63 1004.12 1004.75 1005.52 1006.37 1007.27 1008.16 1009.00 1009.76 1010.42 1010.99 1011.49 1011.96 1012.44 1012.95 1013.54 1014.19 1014.91 1015.67 1016.43 1017.14 1017.78 1018.29
1005.97 1005.74 1005.37 1004.89 1004.35 1003.82 1003.34 1002.98 1002.77 1002.71 1002.78 1002.96 1003.18 1003.42 1003.63 1003.77 1003.86 1003.91 1003.96 1004.04 1004.22 1004.51 1004.95 1005.55 1006.27 1007.09 1007.97 1008.84 1009.67 1010.43 1011.10 1011.69 1012.21 1012.70 1013.20 1013.74 1014.34 1015.00 1015.73 1016.48 1017.23 1017.93 1018.54 1019.03
1005.67 1005.42 1005.05 1004.62 1004.15 1003.72 1003.37 1003.15 1003.08 1003.16 1003.36 1003.67 1004.02 1004.36 1004.65 1004.88 1005.03 1005.12 1005.19 1005.28 1005.44 1005.71 1006.11 1006.65 1007.32 1008.09 1008.92 1009.76 1010.56 1011.30 1011.97 1012.56 1013.09 1013.60 1014.11 1014.66 1015.26 1015.92 1016.63 1017.36 1018.08 1018.74 1019.32 1019.77
1005.49 1005.19 1004.81 1004.39 1003.98 1003.63 1003.38 1003.28 1003.34 1003.55 1003.90 1004.33 1004.81 1005.28 1005.69 1006.02 1006.26 1006.43 1006.56 1006.68 1006.85 1007.10 1007.47 1007.95 1008.56 1009.26 1010.02 1010.80 1011.55 1012.26 1012.91 1013.49 1014.03 1014.54 1015.06 1015.60 1016.19 1016.83 1017.50 1018.19 1018.87 1019.49 1020.02 1020.44
1005.48 1005.11 1004.68 1004.25 1003.86 1003.56 1003.38 1003.37 1003.53 1003.86 1004.33 1004.90 1005.51 1006.10 1006.64 1007.10 1007.46 1007.72 1007.93 1008.10 1008.30 1008.55 1008.88 1009.32 1009.85 1010.47 1011.15 1011.85 1012.54 1013.20 1013.81 1014.37 1014.89 1015.40 1015.91 1016.44 1017.00 1017.60 1018.24 1018.88 1019.50 1020.08 1020.57 1020.96
1005.67 1005.21 1004.73 1004.26 1003.85 1003.56 1003.43 1003.47 1003.71 1004.13 1004.70 1005.37 1006.10 1006.82 1007.49 1008.07 1008.55 1008.93 1009.22 1009.47 1009.70 1009.95 1010.26 1010.64 1011.10 1011.63 1012.20 1012.81 1013.42 1014.01 1014.56 1015.09 1015.58 1016.06 1016.55 1017.05 1017.58 1018.15 1018.74 1019.33 1019.91 1020.45 1020.91 1021.28
1006.05 1005.52 1004.97 1004.45 1004.02 1003.72 1003.60 1003.67 1003.96 1004.43 1005.07 1005.83 1006.65 1007.48 1008.26 1008.96 1009.55 1010.04 1010.42 1010.73 1011.00 1011.26 1011.54 1011.86 1012.24 1012.67 1013.14 1013.64 1014.15 1014.65 1015.14 1015.60 1016.05 1016.50 1016.95 1017.42 1017.91 1018.44 1018.99 1019.54 1020.08 1020.59 1021.03 1021.40
1006.61 1006.02 1005.42 1004.87 1004.41 1004.11 1003.99 1004.08 1004.39 1004.90 1005.58 1006.39 1007.28 1008.18 1009.04 1009.83 1010.51 1011.08 1011.54 1011.90 1012.19 1012.45 1012.70 1012.96 1013.25 1013.58 1013.94 1014.32 1014.72 1015.13 1015.53 1015.92 1016.31 1016.71 1017.12 1017.56 1018.02 1018.51 1019.02 1019.54 1020.06 1020.55 1020.98 1021.35
1007.30 1006.70 1006.09 1005.53 1005.08 1004.78 1004.68 1004.79 1005.11 1005.64 1006.34 1007.17 1008.08 1009.01 1009.92 1010.75 1011.48 1012.10 1012.60 1012.99 1013.29 1013.54 1013.74 1013.94 1014.14 1014.37 1014.61 1014.88 1015.17 1015.47 1015.78 1016.10 1016.43 1016.77 1017.14 1017.54 1017.97 1018.43 1018.92 1019.42 1019.92 1020.40 1020.83 1021.20
1008.08 1007.50 1006.93 1006.42 1006.01 1005.76 1005.69 1005.83 1006.17 1006.70 1007.40 1008.22 1009.12 1010.04 1010.93 1011.76 1012.50 1013.12 1013.63 1014.02 1014.31 1014.52 1014.68 1014.81 1014.93 1015.06 1015.20 1015.36 1015.54 1015.74 1015.96 1016.21 1016.48 1016.78 1017.12 1017.48 1017.89 1018.33 1018.80 1019.29 1019.78 1020.25 1020.68 1021.07
1008.88 1008.38 1007.90 1007.48 1007.17 1007.00 1007.00 1007.18 1007.55 1008.08 1008.75 1009.52 1010.37 1011.23 1012.07 1012.85 1013.54 1014.13 1014.60 1014.97 1015.22 1015.40 1015.51 1015.58 1015.63 1015.67 1015.72 1015.79 1015.88 1016.00 1016.15 1016.34 1016.56 1016.83 1017.14 1017.49 1017.88 1018.32 1018.77 1019.25 1019.73 1020.20 1020.63 1021.01
1009.62 1009.25 1008.90 1008.63 1008.45 1008.40 1008.50 1008.74 1009.13 1009.65 1010.28 1010.98 1011.74 1012.51 1013.25 1013.94 1014.55 1015.06 1015.48 1015.79 1016.00 1016.14 1016.21 1016.24 1016.23 1016.21 1016.20 1016.21 1016.24 1016.30 1016.40 1016.55 1016.75 1016.99 1017.29 1017.64 1018.02 1018.45 1018.91 1019.38 1019.85 1020.30 1020.72 1021.10
1010.24 1010.02 1009.86 1009.75 1009.74 1009.83 1010.03 1010.33 1010.74 1011.24 1011.81 1012.43 1013.07 1013.71 1014.33 1014.89 1015.40 1015.82 1016.16 1016.42 1016.60 1016.71 1016.76 1016.76 1016.74 1016.70 1016.66 1016.64 1016.64 1016.68 1016.76 1016.89 1017.07 1017.31 1017.61 1017.96 1018.35 1018.77 1019.22 1019.69 1020.14 1020.58 1020.98 1021.33
1010.70 1010.65 1010.66 1010.74 1010.89 1011.11 1011.41 1011.77 1012.19 1012.66 1013.15 1013.67 1014.18 1014.69 1015.16 1015.60 1015.99 1016.33 1016.61 1016.82 1016.98 1017.08 1017.14 1017.16 1017.15 1017.13 1017.10 1017.08 1017.09 1017.13 1017.21 1017.34 1017.53 1017.77 1018.07 1018.43 1018.82 1019.25 1019.69 1020.14 1020.58 1020.99 1021.36 1021.68
1010.98 1011.09 1011.27 1011.50 1011.79 1012.13 1012.50 1012.90 1013.31 1013.73 1014.14 1014.55 1014.94 1015.31 1015.66 1015.98 1016.28 1016.54 1016.78 1016.98 1017.15 1017.28 1017.38 1017.45 1017.49 1017.52 1017.53 1017.55 1017.59 1017.65 1017.75 1017.89 1018.08 1018.33 1018.64 1018.99 1019.38 1019.80 1020.24 1020.67 1021.08 1021.46 1021.80 1022.09
1011.12 1011.36 1011.66 1012.01 1012.40 1012.81 1013.22 1013.63 1014.01 1014.37 1014.70 1015.00 1015.28 1015.54 1015.78 1016.02 1016.26 1016.49 1016.72 1016.95 1017.16 1017.35 1017.52 1017.67 1017.79 1017.89 1017.97 1018.04 1018.12 1018.21 1018.32 1018.48 1018.68 1018.93 1019.23 1019.57 1019.95 1020.36 1020.78 1021.19 1021.58 1021.93 1022.24 1022.50
1011.16 1011.48 1011.86 1012.28 1012.72 1013.16 1013.58 1013.96 1014.30 1014.60 1014.84 1015.06 1015.25 1015.43 1015.61 1015.81 1016.03 1016.27 1016.53 1016.81 1017.10 1017.38 1017.64 1017.88 1018.10 1018.28 1018.42 1018.55 1018.67 1018.78 1018.91 1019.06 1019.25 1019.49 1019.77 1020.10 1020.46 1020.84 1021.24 1021.62 1021.99 1022.32 1022.61 1022.85
1011.19 1011.55 1011.96 1012.39 1012.84 1013.26 1013.64 1013.98 1014.27 1014.50 1014.68 1014.83 1014.97 1015.12 1015.28 1015.48 1015.73 1016.01 1016.34 1016.70 1017.08 1017.45 1017.82 1018.15 1018.45 1018.70 1018.91 1019.07 1019.21 1019.33 1019.46 1019.60 1019.76 1019.97 1020.22 1020.51 1020.84 1021.20 1021.57 1021.94 1022.29 1022.61 1022.89 1023.12
1011.29 1011.65 1012.04 1012.45 1012.85 1013.22 1013.56 1013.84 1014.06 1014.24 1014.38 1014.51 1014.64 1014.78 1014.97 1015.21 1015.51 1015.87 1016.28 1016.72 1017.19 1017.66 1018.11 1018.51 1018.87 1019.17 1019.41 1019.59 1019.72 1019.84 1019.93 1020.04 1020.17 1020.33 1020.54 1020.79 1021.09 1021.42 1021.77 1022.12 1022.46 1022.78 1023.06 1023.30
1011.53 1011.85 1012.20 1012.55 1012.89 1013.20 1013.46 1013.69 1013.87 1014.01 1014.14 1014.27 1014.42 1014.60 1014.85 1015.15 1015.52 1015.96 1016.44 1016.97 1017.50 1018.03 1018.53 1018.97 1019.36 1019.67 1019.90 1020.07 1020.18 1020.26 1020.31 1020.37 1020.45 1020.57 1020.73 1020.95 1021.21 1021.51 1021.84 1022.18 1022.52 1022.84 1023.13 1023.39
1011.96 1012.23 1012.52 1012.80 1013.06 1013.30 1013.51 1013.68 1013.84 1013.98 1014.12 1014.27 1014.47 1014.71 1015.02 1015.39 1015.83 1016.33 1016.87 1017.44 1018.01 1018.56 1019.06 1019.50 1019.87 1020.15 1020.35 1020.48 1020.54 1020.57 1020.58 1020.59 1020.62 1020.69 1020.82 1020.99 1021.23 1021.50 1021.82 1022.15 1022.49 1022.82 1023.13 1023.39
Thickness
5777 5786 5783 5775 5774 5779 5781 5786 5783 5785 5783 5783 5788 5789 5788 5791 5793 5794 5792 5789 5785 5780 5776 5773 5769 5767 5764 5760 5757 5753 5747 5742 5739 5738 5736 5733 5730 5728 5725 5722 5721 5719 5717 5715
5760 5776 5774 5768 5770 5771 5775 5789 5791 5789 5785 5794 5792 5790 5785 5785 5785 5784 5784 5782 5779 5775 5771 5767 5765 5762 5759 5757 5754 5751 5746 5741 5739 5735 5731 5728 5725 5723 5720 5718 5716 5713 5711 5707
5739 5761 5762 5751 5769 5774 5780 5792 5791 5780 5785 5792 5784 5780 5777 5778 5778 5779 5779 5776 5772 5769 5766 5762 5761 5759 5755 5753 5750 5746 5742 5739 5735 5731 5726 5723 5721 5717 5714 5711 5708 5705 5702 5698
5731 5736 5720 5757 5784 5786 5786 5788 5791 5788 5787 5786 5779 5775 5776 5777 5774 5772 5771 5769 5766 5763 5760 5759 5756 5754 5751 5747 5743 5739 5735 5732 5729 5725 5721 5717 5713 5709 5705 5702 5698 5695 5691 5688
5720 5720 5730 5755 5770 5772 5769 5767 5779 5777 5777 5778 5774 5769 5764 5768 5766 5762 5761 5761 5759 5758 5755 5752 5748 5745 5742 5737 5733 5730 5726 5724 5722 5718 5714 5709 5703 5699 5695 5691 5687 5684 5681 5677
5712 5705 5707 5736 5759 5770 5761 5745 5761 5765 5762 5764 5761 5749 5746 5754 5755 5753 5753 5751 5749 5748 5746 5741 5738 5736 5730 5725 5722 5718 5716 5714 5711 5709 5704 5699 5694 5690 5685 5681 5677 5674 5670 5666
5702 5701 5715 5733 5749 5753 5726 5722 5745 5752 5752 5753 5749 5745 5743 5744 5742 5740 5739 5737 5736 5735 5731 5728 5726 5723 5716 5712 5708 5706 5704 5702 5698 5695 5691 5688 5684 5681 5677 5672 5667 5663 5659 5654
5697 5693 5698 5721 5727 5718 5715 5732 5738 5740 5742 5738 5735 5735 5731 5727 5725 5724 5723 5722 5722 5720 5716 5714 5713 5709 5703 5698 5697 5695 5693 5690 5686 5684 5682 5677 5673 5669 5666 5662 5658 5653 5649 5644
5695 5694 5705 5713 5713 5717 5721 5720 5724 5727 5728 5725 5720 5718 5714 5710 5709 5708 5707 5707 5707 5705 5702 5700 5699 5696 5691 5687 5686 5684 5681 5677 5674 5671 5667 5664 5661 5657 5655 5652 5649 5645 5640 5636
5690 5695 5699 5703 5705 5709 5711 5712 5716 5717 5716 5714 5707 5704 5701 5697 5695 5694 5693 5693 5693 5691 5688 5685 5684 5683 5680 5677 5675 5672 5668 5664 5661 5657 5653 5648 5647 5643 5640 5638 5636 5632 5627 5623
5677 5684 5688 5692 5692 5695 5699 5702 5704 5704 5704 5701 5698 5692 5689 5684 5682 5681 5679 5678 5678 5676 5673 5671 5671 5669 5668 5665 5663 5659 5657 5653 5649 5643 5637 5631 5625 5620 5619 5613 5614 5613 5609 5605
5665 5672 5671 5672 5678 5683 5685 5687 5688 5687 5686 5685 5684 5680 5675 5672 5669 5667 5666 5665 5664 5663 5661 5659 5658 5656 5654 5653 5652 5649 5646 5643 5639 5635 5629 5623 5615 5606 5598 5597 5596 5594 5592 5588
5664 5665 5665 5665 5667 5669 5670 5672 5673 5672 5671 5669 5668 5666 5662 5658 5656 5655 5653 5652 5650 5649 5648 5646 5644 5642 5641 5641 5640 5638 5636 5633 5631 5627 5622 5617 5611 5603 5593 5584 5580 5578 5576 5573
5658 5656 5653 5653 5653 5656 5657 5658 5658 5657 5655 5654 5653 5651 5648 5645 5643 5641 5639 5638 5638 5637 5635 5634 5631 5629 5629 5628 5627 5626 5625 5622 5620 5617 5614 5610 5605 5600 5593 5585 5577 5569 5562 5558
5649 5647 5644 5644 5643 5643 5644 5644 5643 5640 5639 5636 5636 5635 5634 5631 5628 5627 5626 5626 5625 5623 5622 5621 5619 5617 5617 5617 5615 5614 5613 5611 5609 5607 5605 5600 5596 5592 5586 5580 5573 5564 5555 5547
5640 5639 5637 5634 5632 5631 5631 5630 5628 5626 5624 5623 5623 5622 5621 5619 5616 5615 5614 5614 5613 5610 5609 5608 5606 5607 5607 5606 5604 5602 5599 5597 5597 5597 5594 5589 5585 5580 5574 5568 5561 5554 5546 5538
5633 5629 5627 5624 5623 5622 5621 5619 5618 5616 5614 5612 5611 5610 5609 5608 5606 5604 5603 5603 5602 5600 5599 5598 5597 5597 5597 5597 5597 5597 5594 5589 5584 5585 5580 5576 5571 5566 5559 5553 5547 5540 5532 5522
5631 5628 5625 5622 5619 5616 5613 5611 5610 5608 5607 5605 5604 5602 5601 5599 5597 5595 5595 5594 5593 5591 5590 5590 5590 5589 5589 5588 5588 5588 5585 5582 5577 5572 5565 5559 5556 5551 5545 5539 5532 5526 5518 5510
5627 5623 5620 5618 5615 5612 5608 5605 5603 5602 5601 5601 5598 5596 5594 5593 5592 5591 5589 5587 5585 5583 5582 5582 5580 5581 5580 5578 5576 5577 5575 5571 5565 5558 5553 5544 5542 5537 5531 5524 5518 5512 5505 5499
5621 5618 5615 5612 5609 5606 5603 5601 5600 5598 5597 5596 5594 5591 5589 5588 5587 5586 5584 5581 5579 5577 5577 5575 5574 5572 5571 5568 5565 5567 5564 5559 5553 5547 5541 5535 5530 5523 5516 5511 5504 5498 5491 5485
5614 5612 5610 5607 5605 5603 5601 5599 5597 5595 5594 5593 5590 5588 5585 5584 5583 5580 5577 5573 5570 5569 5568 5565 5565 5562 5560 5556 5555 5556 5551 5545 5540 5534 5528 5522 5516 5509 5502 5496 5490 5484 5477 5471
5609 5607 5606 5604 5601 5598 5597 5596 5594 5592 5590 5587 5586 5583 5581 5578 5576 5574 5570 5567 5563 5559 5560 5558 5554 5549 5547 5544 5546 5543 5538 5532 5527 5521 5515 5509 5502 5495 5489 5483 5477 5471 5465 5459
5604 5603 5601 5599 5596 5594 5593 5592 5590 5588 5585 5583 5580 5578 5576 5573 5571 5567 5562 5559 5557 5552 5551 5546 5540 5537 5533 5535 5534 5530 5524 5519 5514 5508 5502 5496 5490 5483 5477 5472 5466 5460 5454 5449
5597 5595 5594 5593 5592 5589 5586 5585 5585 5583 5581 5578 5576 5573 5571 5567 5564 5561 5555 5549 5547 5543 5540 5532 5529 5526 5522 5525 5522 5516 5511 5506 5501 5496 5491 5485 5479 5474 5468 5462 5456 5451 5446 5441
5592 5590 5589 5587 5586 5584 5582 5581 5579 5577 5575 5573 5570 5567 5566 5562 5558 5553 5548 5542 5536 5534 5529 5523 5519 5516 5515 5514 5510 5504 5498 5493 5488 5484 5480 5475 5470 5465 5459 5454 5448 5443 5438 5433
5586 5586 5584 5583 5582 5580 5580 5578 5575 5572 5570 5566 5563 5560 5557 5554 5549 5544 5539 5535 5530 5524 5521 5516 5512 5507 5507 5503 5498 5493 5488 5483 5479 5474 5470 5466 5461 5456 5451 5446 5440 5437 5432 5427
5583 5581 5580 5578 5577 5576 5575 5572 5568 5564 5562 5558 5554 5552 5549 5545 5540 5536 5532 5527 5522 5518 5514 5510 5506 5503 5499 5494 5489 5484 5481 5476 5472 5468 5463 5458 5453 5449 5444 5439 5435 5431 5426 5422